Location: Tamazert
(32.6352°N, 5.2072°W)
Time: 14:06:12
(UTC+00:00)

Vanguard 3 - All Passes

Search period start: 03 October 2022 00:00
Search period end: 13 October 2022 00:00
Orbit: 508 x 3257 km, 33.3° (Epoch: 02 October)

Date Brightness Start Highest point End Pass type
(mag) Time Alt. Az. Time Alt. Az. Time Alt. Az.
03 Oct - 07:15:08 10° SSW 07:18:12 24° SSE 07:21:51 10° E daylight
03 Oct - 09:24:52 10° W 09:29:11 88° SSE 09:36:11 10° E daylight
03 Oct - 11:35:27 10° W 11:41:25 88° S 11:52:24 10° ESE daylight
03 Oct - 13:46:27 10° W 13:54:39 54° SSW 14:09:01 10° SE daylight
03 Oct - 15:59:52 10° W 16:09:09 25° SSW 16:21:58 10° SSE daylight
04 Oct - 08:11:06 10° WSW 08:14:50 59° SSE 08:20:00 10° E daylight
04 Oct - 10:21:36 10° W 10:26:27 84° N 10:34:49 10° E daylight
04 Oct - 12:32:15 10° W 12:39:00 68° SSW 12:51:22 10° ESE daylight
04 Oct - 14:44:04 10° W 14:52:43 35° SSW 15:06:16 10° SSE daylight
04 Oct - 17:02:32 10° SW 17:07:40 12° SW 17:13:29 10° SSW daylight
05 Oct - 06:57:32 10° SW 07:00:46 29° SSE 07:04:24 10° E daylight
05 Oct - 09:07:45 10° W 09:11:49 87° NNW 09:18:04 10° E daylight
05 Oct - 11:18:20 10° W 11:23:50 83° S 11:33:43 10° ESE daylight
05 Oct - 13:29:19 10° W 13:36:45 46° SSW 13:49:33 10° SE daylight
05 Oct - 15:43:16 10° WSW 15:51:01 20° SSW 16:01:21 10° S daylight
06 Oct - 05:44:39 10° S 05:46:40 14° SSE 05:48:37 10° ESE visible
06 Oct - 07:53:51 10° WSW 07:57:30 68° SSE 08:02:12 10° E daylight
06 Oct - 10:04:31 10° W 10:09:02 84° N 10:16:31 10° E daylight
06 Oct - 12:15:08 10° W 12:21:17 59° SSW 12:32:20 10° ESE daylight
06 Oct - 14:27:10 10° W 14:34:45 28° SSW 14:46:16 10° SSE daylight
07 Oct - 06:39:56 10° SW 06:43:24 36° SSE 06:47:00 10° E daylight
07 Oct - 08:50:38 10° W 08:54:30 83° N 09:00:05 10° E daylight
07 Oct - 11:01:15 10° W 11:06:17 76° SSW 11:15:08 10° ESE daylight
07 Oct - 13:12:18 10° W 13:18:57 38° SSW 13:30:03 10° SE daylight
07 Oct - 15:27:18 10° WSW 15:33:01 15° SSW 15:40:10 10° S daylight
08 Oct - 05:26:16 10° SSW 05:29:14 19° SSE 05:31:55 10° ESE visible
08 Oct - 07:36:34 10° WSW 07:40:12 77° SSE 07:44:31 10° E daylight
08 Oct - 09:47:25 10° W 09:51:38 87° N 09:58:19 10° E daylight
08 Oct - 11:58:04 10° W 12:03:39 50° SSW 12:13:21 10° SE daylight
08 Oct - 14:10:32 10° WSW 14:16:55 22° SSW 14:26:05 10° SSE daylight
09 Oct - 04:14:08 10° SSE 04:14:47 10° SSE 04:15:25 10° SSE visible
09 Oct - 06:22:18 10° SW 06:26:04 45° SSE 06:29:38 10° E daylight
09 Oct - 08:33:28 10° W 08:37:12 80° N 08:42:13 10° E daylight
09 Oct - 10:44:09 10° W 10:48:48 67° SSW 10:56:37 10° ESE daylight
09 Oct - 12:55:25 10° W 13:01:16 30° SSW 13:10:31 10° SSE daylight
09 Oct - 15:13:49 10° SW 15:15:10 10° SSW 15:16:35 10° SSW daylight
10 Oct - 05:08:01 10° SW 05:11:52 25° SSE 05:15:01 10° E visible
10 Oct - 07:19:13 10° W 07:22:56 86° S 07:26:57 10° E daylight
10 Oct - 09:30:18 10° W 09:34:16 87° SSW 09:40:14 10° E daylight
10 Oct - 11:41:05 10° W 11:46:06 41° SSW 11:54:24 10° SE daylight
10 Oct - 13:54:19 10° WSW 13:59:10 16° SSW 14:05:33 10° S daylight
11 Oct - 03:54:02 10° SSW 03:57:22 16° SSE 04:00:04 10° ESE visible
11 Oct - 06:04:37 10° WSW 06:08:45 56° SSE 06:12:20 10° E daylight
11 Oct - 08:16:16 10° W 08:19:56 80° N 08:24:29 10° E daylight
11 Oct - 10:27:05 10° W 10:31:22 56° SSW 10:38:11 10° ESE daylight
11 Oct - 12:38:43 10° WSW 12:43:40 23° SSW 12:50:54 10° SSE daylight
12 Oct - 04:49:47 10° SW 04:54:29 34° SSE 04:58:01 10° E visible
12 Oct - 07:01:48 10° W 07:05:40 86° N 07:09:28 10° E daylight
12 Oct - 09:13:08 10° W 09:16:57 79° S 09:22:15 10° ESE daylight
12 Oct - 11:24:09 10° W 11:28:36 32° SSW 11:35:28 10° SE daylight
12 Oct - 13:39:32 10° SW 13:41:32 11° SSW 13:43:45 10° SSW daylight
